This demonstration page uses our WeatherBlox Daily Observations layout. Learn more.

Left ArrowRight Arrow

41.55636, -103.73856

Hourly Observations for February 13, 2018

Temp ( °F °C ) Dew Point ( °F °C ) Humidity (%) Winds ( mph kmh ) Pressure ( in mb ) Visibility ( mi km ) Precip ( " mm )
12:53 am 00:53 Cloudy 19 -7.2 16 -8.9 88 88 SE 6 9 30.27 1025 8 13 N/A
1:53 am 01:53 Mostly Cloudy 19 -7.2 16 -8.9 88 88 SE 6 9 30.25 1025 9 14 N/A
2:02 am 02:02 Partly Cloudy 19 -7 16 -9 86 86 ESE 7 11 30.33 1027 9 14 N/A
2:53 am 02:53 Clear 19 -7.2 16 -8.9 88 88 ESE 8 13 30.21 1023 9 14 N/A
3:53 am 03:53 Clear 17 -8.3 15 -9.4 92 92 SE 7 11 30.21 1023 8 13 N/A
4:53 am 04:53 Clear 15 -9.4 12 -11.1 88 88 ENE 6 9 30.21 1023 8 13 N/A
5:53 am 05:53 Clear 14 -10 11 -11.7 88 88 N N/A 30.22 1023 7 11 N/A
6:53 am 06:53 Sunny 13 -10.6 10 -12.2 88 88 W 5 7 30.23 1024 7 11 N/A
7:53 am 07:53 Sunny with Mist and Fog 15 -9.4 13 -10.6 91 91 WNW 5 7 30.24 1024 6 10 N/A
8:53 am 08:53 Sunny 20 -6.7 16 -8.9 85 85 NW 7 11 30.24 1024 7 11 N/A
9:53 am 09:53 Sunny 24 -4.4 17 -8.3 75 75 WNW 5 7 30.23 1024 10 16 N/A
10:53 am 10:53 Sunny 31 -0.6 20 -6.7 64 64 VRB 3 6 30.20 1023 10 16 N/A
11:53 am 11:53 Sunny 39 3.9 24 -4.4 55 55 S 5 7 30.14 1021 10 16 N/A
12:53 pm 12:53 Sunny 46 7.8 26 -3.3 46 46 SW 3 6 30.10 1019 10 16 N/A
1:53 pm 13:53 Sunny 54 12.2 28 -2.2 37 37 VRB 7 11 30.05 1018 10 16 N/A
2:53 pm 14:53 Sunny 56 13.3 28 -2.2 34 34 WSW 12 19 30.04 1017 10 16 N/A
3:53 pm 15:53 Sunny 54 12.2 31 -0.6 42 42 SW 8 13 30.06 1018 10 16 N/A
4:53 pm 16:53 Sunny 51 10.6 26 -3.3 38 38 W 14 22 30.08 1019 10 16 N/A
5:53 pm 17:53 Clear 45 7.2 27 -2.8 49 49 WNW 9 15 30.11 1020 10 16 N/A
6:53 pm 18:53 Clear 41 5 26 -3.3 55 55 W 7 11 30.13 1020 10 16 N/A
7:53 pm 19:53 Clear 34 1.1 26 -3.3 73 73 N N/A 30.13 1020 10 16 N/A
8:53 pm 20:53 Clear 37 2.8 26 -3.3 65 65 VRB 5 7 30.09 1019 10 16 N/A
9:53 pm 21:53 Clear 46 7.8 26 -3.3 46 46 WSW 15 24 30.05 1018 10 16 N/A
10:53 pm 22:53 Clear 45 7.2 26 -3.3 48 48 WSW 12 19 30.03 1017 10 16 N/A
11:53 pm 23:53 Clear 40 4.4 26 -3.3 58 58 WSW 6 9 30.00 1016 10 16 N/A

Powered by AerisWeather